PSLV R/B, 44862

Orbit data source: Space-Track

PSLV R/B, 44862 is space debris in LEO originally from a launch on Wed, 11 Dec 2019 UTC launched from the Sirharikota (SRI). Debris objects in space refer to the collection of defunct objects orbiting the Earth. Examples of debris include non-operational satellites, rocket bodies, and fragments generated from explosions, collisions, or faulty payload assembly.

Loading next visibility...
Identifier
44862, 2019-089L
Orbit
LEO
Country
Flag of ININ / IND
Related business
Manufacturer
VSSC/LPSC
Mission
Spacecraft
Bus & Motor
PS-4, Unknown motor
Mass
920 kg wet, 920 kg dry
Launch date (UTC)
2019-12-11 (7 years ago)
Launch vehicle
Unknown
Launch site
Sirharikota (SRI)
Object type
Payload
Rocket body
Debris
Shape & HBR
Cyl + Cyl + 2 Nozzle, 1.5 m
Radar Cross Section
3.727 m², Large (>1 m²)

Expand to show TLE details & history
Last TLE update: 12 hours ago

TLE from 12 hours ago
0 PSLV R/B
1 44862U 19089L   26206.59044297  .00028195  00000-0  41635-3 0  9994
2 44862  36.9658 172.9995 0011557 107.1854 253.0172 15.54388632367708
Epoch: 2026-07-25T14:10Z
TLE epoch observation values (Epoch: 2026-07-25T14:10:14.272Z)
Latitude
0.00001°
Longitude
17.1395°
Altitude
405.331 km
Speed
7.668 km/s
True Right ascension
11h 31m 59s
True Declination
0° 00' 00"
Sunlit
Object was in daylight at epoch
Visualization orbit readout
Latitude
Unknown
Longitude
Unknown
Altitude
Unknown
Speed
Unknown
Apparent Right ascension
Unknown
Apparent Declination
Unknown
Sunlit
N/A
Visualization observer readout
Local Sidereal Time
15:20:07
Azimuth
Unknown
Elevation
Unknown
Doppler factor
Unknown
Orbital elements
Apogee altitude
414.748 km
Perigee altitude
399.066 km
Semi-major axis
6,785.044 km
Eccentricity
0.00116
Inclination
36.9658°
RAAN
172.9995°
Arg. of periapsis
107.1854°
True anomaly
252.8906°
Mean anomaly
253.0172°
Eccentric anomaly
252.95389°
Mean motion
3.88342 °/min
Orbital period
92.7 mins
BSTAR
0.00041635
Loading maneuver chart data...
Computing Atmospheric mass density...
Loading historical data...
Loading historical data...
Loading historical data...
Loading historical data...
Loading historical data...
Loading historical data...
Loading historical data...

Documentation

Showing up to 5 results
|